WAT463 KSAN-KLAX

Flight info

Callsign WAT463
Flight time 0h 26m
Altitude 10000
Route CWARD2 SLI
Aircraft B738/M-SDE2E3FGHIRWXY/LB1

Departure

Time 2026-04-25 22:33
Airport San Diego International Airport (KSAN)

Arrival

Time 2026-04-25 23:00
Airport Los Angeles International Airport (KLAX)
Time Latitude Longitude Altitude Speed Heading
2026-04-25 22:03 32.73420 -117.20337 20 ft 0 kts 268°
2026-04-25 22:03 32.73420 -117.20338 20 ft 0 kts 268°
2026-04-25 22:04 32.73420 -117.20337 20 ft 0 kts 268°
2026-04-25 22:05 32.73420 -117.20338 20 ft 0 kts 268°
2026-04-25 22:05 32.73420 -117.20337 20 ft 0 kts 268°
2026-04-25 22:05 32.73420 -117.20338 20 ft 0 kts 268°
2026-04-25 22:05 32.73420 -117.20337 20 ft 0 kts 268°
2026-04-25 22:06 32.73420 -117.20338 20 ft 0 kts 268°
2026-04-25 22:06 32.73420 -117.20337 20 ft 0 kts 268°
2026-04-25 22:16 32.73421 -117.20325 20 ft 2 kts 268°
2026-04-25 22:16 32.73421 -117.20307 20 ft 2 kts 267°
2026-04-25 22:17 32.73418 -117.20290 20 ft 2 kts 309°
2026-04-25 22:17 32.73405 -117.20279 20 ft 2 kts 344°
2026-04-25 22:17 32.73393 -117.20278 20 ft 0 kts 12°
2026-04-25 22:17 32.73387 -117.20280 20 ft 1 kts 17°
2026-04-25 22:18 32.73386 -117.20280 20 ft 0 kts 16°
2026-04-25 22:20 32.73396 -117.20277 20 ft 2 kts 14°
2026-04-25 22:21 32.73409 -117.20274 20 ft 1 kts 17°
2026-04-25 22:21 32.73416 -117.20270 20 ft 0 kts 17°
2026-04-25 22:22 32.73421 -117.20269 20 ft 4 kts 17°
2026-04-25 22:22 32.73481 -117.20249 20 ft 9 kts 15°
2026-04-25 22:22 32.73540 -117.20219 20 ft 9 kts 52°
2026-04-25 22:23 32.73537 -117.20138 20 ft 13 kts 106°
2026-04-25 22:23 32.73499 -117.19985 20 ft 24 kts 104°
2026-04-25 22:23 32.73452 -117.19791 21 ft 24 kts 105°
2026-04-25 22:23 32.73406 -117.19601 22 ft 23 kts 106°
2026-04-25 22:24 32.73363 -117.19421 24 ft 22 kts 106°
2026-04-25 22:24 32.73320 -117.19244 23 ft 22 kts 106°
2026-04-25 22:24 32.73277 -117.19067 23 ft 22 kts 106°
2026-04-25 22:24 32.73234 -117.18887 22 ft 22 kts 106°
2026-04-25 22:25 32.73190 -117.18710 21 ft 22 kts 107°
2026-04-25 22:25 32.73147 -117.18528 20 ft 22 kts 106°
2026-04-25 22:25 32.73104 -117.18351 20 ft 22 kts 106°
2026-04-25 22:25 32.73061 -117.18175 21 ft 22 kts 105°
2026-04-25 22:26 32.73019 -117.18002 21 ft 21 kts 106°
2026-04-25 22:26 32.72979 -117.17837 23 ft 19 kts 107°
2026-04-25 22:26 32.72957 -117.17745 25 ft 3 kts 104°
2026-04-25 22:26 32.72952 -117.17720 25 ft 2 kts 99°
2026-04-25 22:27 32.72951 -117.17709 25 ft 0 kts 94°
2026-04-25 22:27 32.72951 -117.17696 26 ft 3 kts 88°
2026-04-25 22:27 32.72952 -117.17689 26 ft 0 kts 81°
2026-04-25 22:31 32.72953 -117.17678 26 ft 6 kts 79°
2026-04-25 22:31 32.72977 -117.17617 27 ft 7 kts 40°
2026-04-25 22:32 32.73022 -117.17618 27 ft 6 kts 322°
2026-04-25 22:32 32.73040 -117.17664 27 ft 6 kts 287°
2026-04-25 22:32 32.73063 -117.17754 25 ft 31 kts 286°
2026-04-25 22:32 32.73192 -117.18287 21 ft 100 kts 286°
2026-04-25 22:33 32.73439 -117.19307 24 ft 154 kts 286°
2026-04-25 22:33 32.73756 -117.20592 527 ft 160 kts 283°
2026-04-25 22:33 32.74136 -117.21775 1239 ft 161 kts 298°
2026-04-25 22:33 32.74823 -117.22864 1829 ft 171 kts 305°
2026-04-25 22:34 32.75563 -117.24021 2391 ft 182 kts 303°
2026-04-25 22:34 32.76287 -117.25289 2955 ft 193 kts 301°
2026-04-25 22:34 32.77035 -117.26693 3349 ft 216 kts 300°
2026-04-25 22:34 32.77868 -117.28284 3857 ft 236 kts 300°
2026-04-25 22:35 32.78787 -117.29985 4404 ft 254 kts 302°
2026-04-25 22:35 32.79790 -117.31725 5148 ft 263 kts 303°
2026-04-25 22:35 32.80875 -117.33469 5979 ft 268 kts 306°
2026-04-25 22:35 32.82040 -117.35187 6845 ft 271 kts 307°
2026-04-25 22:36 32.83238 -117.36950 7705 ft 275 kts 305°
2026-04-25 22:36 32.84419 -117.38730 8553 ft 278 kts 303°
2026-04-25 22:36 32.85601 -117.40543 9381 ft 281 kts 303°
2026-04-25 22:36 32.86807 -117.42413 9811 ft 285 kts 302°
2026-04-25 22:37 32.88006 -117.44271 9954 ft 287 kts 302°
2026-04-25 22:37 32.89222 -117.46155 9952 ft 284 kts 302°
2026-04-25 22:37 32.90426 -117.48024 9950 ft 283 kts 302°
2026-04-25 22:37 32.91621 -117.49887 9962 ft 284 kts 302°
2026-04-25 22:38 32.92821 -117.51757 9939 ft 284 kts 302°
2026-04-25 22:38 32.94018 -117.53620 9946 ft 284 kts 302°
2026-04-25 22:38 32.95216 -117.55488 9938 ft 284 kts 302°
2026-04-25 22:38 32.96416 -117.57362 9935 ft 284 kts 302°
2026-04-25 22:39 32.97628 -117.59253 9928 ft 286 kts 302°
2026-04-25 22:39 32.98840 -117.61144 9929 ft 285 kts 302°
2026-04-25 22:39 33.00045 -117.63023 9932 ft 285 kts 302°
2026-04-25 22:39 33.01246 -117.64897 9937 ft 286 kts 302°
2026-04-25 22:40 33.02454 -117.66784 9930 ft 286 kts 302°
2026-04-25 22:40 33.03673 -117.68688 9931 ft 285 kts 302°
2026-04-25 22:40 33.04871 -117.70561 9924 ft 286 kts 302°
2026-04-25 22:40 33.06086 -117.72444 9908 ft 286 kts 304°
2026-04-25 22:41 33.07451 -117.74179 9918 ft 290 kts 312°
2026-04-25 22:41 33.08976 -117.75762 9926 ft 292 kts 315°
2026-04-25 22:41 33.10565 -117.77306 9914 ft 292 kts 316°
2026-04-25 22:41 33.12151 -117.78848 9914 ft 291 kts 315°
2026-04-25 22:42 33.13704 -117.80389 9922 ft 291 kts 315°
2026-04-25 22:42 33.15260 -117.81958 9927 ft 292 kts 314°
2026-04-25 22:42 33.16800 -117.83525 9912 ft 292 kts 314°
2026-04-25 22:42 33.18351 -117.85094 9924 ft 292 kts 316°
2026-04-25 22:43 33.20063 -117.86440 9925 ft 299 kts 331°
2026-04-25 22:43 33.22055 -117.87186 9933 ft 304 kts 343°
2026-04-25 22:43 33.24169 -117.87643 9933 ft 305 kts 347°
2026-04-25 22:43 33.26257 -117.88045 9943 ft 305 kts 346°
2026-04-25 22:44 33.28354 -117.88485 9923 ft 306 kts 345°
2026-04-25 22:44 33.30461 -117.88969 9919 ft 304 kts 344°
2026-04-25 22:44 33.32563 -117.89480 9931 ft 305 kts 344°
2026-04-25 22:44 33.34638 -117.89997 9931 ft 304 kts 344°
2026-04-25 22:45 33.36729 -117.90520 9924 ft 298 kts 344°
2026-04-25 22:45 33.38712 -117.91060 9924 ft 290 kts 341°
2026-04-25 22:45 33.40688 -117.91727 9936 ft 302 kts 339°
2026-04-25 22:45 33.42710 -117.92464 9961 ft 302 kts 338°
2026-04-25 22:46 33.44743 -117.93218 9953 ft 302 kts 338°
2026-04-25 22:46 33.46741 -117.93954 9963 ft 301 kts 339°
2026-04-25 22:46 33.48770 -117.94695 9970 ft 301 kts 339°
2026-04-25 22:46 33.50776 -117.95425 9970 ft 302 kts 339°
2026-04-25 22:47 33.52777 -117.96152 9978 ft 300 kts 339°
2026-04-25 22:47 33.54736 -117.96863 9972 ft 286 kts 339°
2026-04-25 22:47 33.56600 -117.97535 9973 ft 270 kts 338°
2026-04-25 22:47 33.58383 -117.98183 9868 ft 269 kts 338°
2026-04-25 22:48 33.60247 -117.98874 9568 ft 288 kts 339°
2026-04-25 22:48 33.62152 -117.99576 9215 ft 288 kts 339°
2026-04-25 22:48 33.64083 -118.00279 8862 ft 286 kts 340°
2026-04-25 22:48 33.65987 -118.00970 8515 ft 285 kts 340°
2026-04-25 22:49 33.67857 -118.01650 8142 ft 279 kts 340°
2026-04-25 22:49 33.69678 -118.02308 7846 ft 267 kts 340°
2026-04-25 22:49 33.71439 -118.02946 7524 ft 258 kts 340°
2026-04-25 22:49 33.73127 -118.03564 7277 ft 248 kts 340°
2026-04-25 22:50 33.74746 -118.04160 7168 ft 240 kts 340°
2026-04-25 22:50 33.76364 -118.04752 7095 ft 239 kts 340°
2026-04-25 22:50 33.77957 -118.05334 7011 ft 240 kts 340°
2026-04-25 22:50 33.79606 -118.05665 6962 ft 240 kts 357°
2026-04-25 22:51 33.81294 -118.05622 6963 ft 243 kts
2026-04-25 22:51 33.82996 -118.05512 6960 ft 242 kts
2026-04-25 22:51 33.84680 -118.05396 6963 ft 243 kts
2026-04-25 22:51 33.86369 -118.05278 6933 ft 240 kts
2026-04-25 22:52 33.88042 -118.05160 6665 ft 239 kts
2026-04-25 22:52 33.89723 -118.05048 6397 ft 238 kts
2026-04-25 22:52 33.91359 -118.04945 6128 ft 237 kts
2026-04-25 22:52 33.92465 -118.04878 5967 ft 235 kts
2026-04-25 22:53 33.94603 -118.04752 5845 ft 223 kts
2026-04-25 22:53 33.96118 -118.04916 5672 ft 215 kts 337°
2026-04-25 22:53 33.97303 -118.05925 5436 ft 208 kts 302°
2026-04-25 22:53 33.97781 -118.07525 5161 ft 204 kts 267°
2026-04-25 22:54 33.97406 -118.09123 5099 ft 199 kts 239°
2026-04-25 22:54 33.96731 -118.10593 4803 ft 200 kts 247°
2026-04-25 22:54 33.96376 -118.12219 4438 ft 202 kts 260°
2026-04-25 22:54 33.96196 -118.13889 4169 ft 199 kts 262°
2026-04-25 22:55 33.96056 -118.15533 3712 ft 192 kts 262°
2026-04-25 22:55 33.95898 -118.17010 3630 ft 164 kts 261°
2026-04-25 22:55 33.95750 -118.18333 3411 ft 155 kts 261°
2026-04-25 22:55 33.95623 -118.19569 3185 ft 148 kts 262°
2026-04-25 22:56 33.95501 -118.20787 2988 ft 147 kts 262°
2026-04-25 22:56 33.95378 -118.22023 2778 ft 146 kts 261°
2026-04-25 22:56 33.95255 -118.23240 2584 ft 146 kts 262°
2026-04-25 22:56 33.95133 -118.24458 2380 ft 145 kts 261°
2026-04-25 22:57 33.95016 -118.25648 2185 ft 145 kts 261°
2026-04-25 22:57 33.94891 -118.26859 1983 ft 144 kts 260°
2026-04-25 22:57 33.94770 -118.28066 1790 ft 146 kts 261°
2026-04-25 22:57 33.94651 -118.29253 1595 ft 141 kts 261°
2026-04-25 22:58 33.94531 -118.30433 1410 ft 142 kts 261°
2026-04-25 22:58 33.94412 -118.31606 1208 ft 142 kts 261°
2026-04-25 22:58 33.94295 -118.32772 1064 ft 140 kts 261°
2026-04-25 22:58 33.94178 -118.33947 840 ft 143 kts 261°
2026-04-25 22:59 33.94046 -118.35132 663 ft 143 kts 259°
2026-04-25 22:59 33.93939 -118.36315 483 ft 141 kts 261°
2026-04-25 22:59 33.93818 -118.37482 282 ft 138 kts 261°
2026-04-25 22:59 33.93703 -118.38616 114 ft 133 kts 259°
2026-04-25 23:00 33.93609 -118.39526 113 ft 75 kts 263°
2026-04-25 23:00 33.93634 -118.39880 118 ft 25 kts 289°
2026-04-25 23:00 33.93664 -118.40045 119 ft 17 kts 262°
2026-04-25 23:00 33.93652 -118.40178 122 ft 13 kts 263°
2026-04-25 23:01 33.93645 -118.40282 124 ft 11 kts 274°
2026-04-25 23:01 33.93663 -118.40362 126 ft 8 kts 294°
2026-04-25 23:01 33.93697 -118.40411 127 ft 6 kts 332°
2026-04-25 23:01 33.93738 -118.40423 127 ft 5 kts 354°
2026-04-25 23:02 33.93774 -118.40427 128 ft 4 kts 354°
2026-04-25 23:02 33.93801 -118.40432 128 ft 3 kts 343°
2026-04-25 23:02 33.93825 -118.40460 130 ft 5 kts 290°
2026-04-25 23:02 33.93827 -118.40472 130 ft 0 kts 276°
2026-04-25 23:03 33.93828 -118.40492 131 ft 6 kts 272°
2026-04-25 23:03 33.93847 -118.40524 131 ft 4 kts 333°
2026-04-25 23:03 33.93877 -118.40531 131 ft 5 kts 352°
2026-04-25 23:03 33.93920 -118.40536 131 ft 8 kts 355°
2026-04-25 23:04 33.93986 -118.40546 130 ft 9 kts 343°
2026-04-25 23:04 33.93998 -118.40575 131 ft 5 kts 272°
2026-04-25 23:04 33.93997 -118.40591 131 ft 0 kts 265°
2026-04-25 23:04 33.93997 -118.40595 131 ft 0 kts 265°